Geneva, Switzerland

1:14 AM CET on February 09, 2016 (GMT +0100)
Geneva

Weather History for 06700 - January, 2014

Change the Weather History Date:

Sunday, January 5, 2014

  Actual Average Record
Temperature  
Mean Temperature 40 °F -  
Max Temperature 46 °F 39 °F - ()
Min Temperature 32 °F 28 °F - ()
Degree Days  
Heating Degree Days 26    
Moisture  
Dew Point 35 °F    
Average Humidity 82    
Maximum Humidity 100    
Minimum Humidity 49    
Precipitation  
Precipitation 0.04 in 0.10 in - ()
Sea Level Pressure  
Sea Level Pressure 29.91 in    
Wind  
Wind Speed 6 mph ()    
Max Wind Speed 20 mph    
Max Gust Speed -    
Visibility 6.3 miles    
Events Rain    
T = Trace of Precipitation, MM = Missing Value Source: Averaged Metar Reports

Daily Weather History Graph

Daily Weather History Graph

Search for Another Location

Airport or City:

Trip Planner

Search our weather history database for the weather conditions in past years. The results will help you decide how hot, cold, wet, or windy it might be!

Date:

Astronomy

Jan. 05, 2014 Rise Set
Actual Time 8:18 AM CET 5:03 PM CET
Civil Twilight 7:43 AM CET 5:38 PM CET
Nautical Twilight 7:05 AM CET 6:16 PM CET
Astronomical Twilight 6:29 AM CET 6:52 PM CET
Moon 10:33 AM CET (1/5) 10:32 PM CET (1/5)
Length of Visible Light 9h 54m
Length of Day
8h 45m
Waxing Crescent, 22% of the Moon is Illuminated
Jan 5
Waxing Crescent
Jan 8
First Quarter
Jan 16
Full
Jan 24
Last Quarter
Jan 30
New

Hourly Weather History & Observations

Time (CET) Temp. Windchill Dew Point Humidity Pressure Visibility Wind Dir Wind Speed Gust Speed Precip Events Conditions
12:00 AM 43 °F - 36 °F 67% 29.65 in - NW 8.1 mph - -  
12:20 AM 41.0 °F 35.2 °F 41.0 °F 100% 29.65 in 6.2 mi South 9.2 mph - N/A Rain Light Rain
12:50 AM 42.8 °F 36.6 °F 39.2 °F 87% 29.65 in 6.2 mi SW 11.5 mph - N/A Rain Light Rain
1:00 AM 43 °F - 36 °F 70% 29.72 in 7 mi SW 6.9 mph - - Rain Light Rain
1:20 AM 42.8 °F 35.4 °F 37.4 °F 81% 29.71 in 6.2 mi SSW 15.0 mph - N/A Rain Light Rain
1:50 AM 41.0 °F 32.8 °F 35.6 °F 81% 29.71 in 6.2 mi South 16.1 mph - N/A Rain Light Rain
2:00 AM 41 °F - 35 °F 70% 29.77 in - SSW 19.6 mph - -  
2:20 AM 41.0 °F 33.9 °F 35.6 °F 81% 29.74 in 6.2 mi SSW 12.7 mph - N/A Rain Light Rain
2:50 AM 39.2 °F 32.0 °F 35.6 °F 87% 29.74 in 6.2 mi South 11.5 mph - N/A Rain Light Rain
3:00 AM 40 °F - 34 °F 72% 29.81 in - South 11.5 mph - -  
3:20 AM 39.2 °F 34.2 °F 35.6 °F 87% 29.77 in 6.2 mi West 6.9 mph - N/A Rain Light Rain Showers
3:50 AM 37.4 °F 31.4 °F 35.6 °F 93% 29.80 in 6.2 mi West 8.1 mph - N/A Rain Light Rain
4:00 AM 38 °F - 35 °F 84% 29.86 in 9 mi West 6.9 mph - - Rain Light Rain
4:20 AM 37.4 °F 32.1 °F 35.6 °F 93% 29.80 in 6.2 mi West 6.9 mph - N/A Rain Light Rain
4:50 AM 37.4 °F 31.4 °F 35.6 °F 93% 29.83 in 6.2 mi WSW 8.1 mph - N/A Rain Light Rain
5:00 AM 37 °F - 34 °F 84% 29.88 in - WSW 8.1 mph - -  
5:20 AM 37.4 °F 31.4 °F 35.6 °F 93% 29.83 in 6.2 mi SW 8.1 mph - N/A   Mostly Cloudy
5:50 AM 37.4 °F 32.8 °F 35.6 °F 93% 29.83 in 6.2 mi SW 5.8 mph - N/A Rain Light Rain Showers
6:00 AM 38 °F - 35 °F 85% 29.89 in - WSW 6.9 mph - -  
6:20 AM 37.4 °F 33.8 °F 35.6 °F 93% 29.83 in 6.2 mi SSW 4.6 mph - N/A   Mostly Cloudy
6:50 AM 37.4 °F 32.8 °F 35.6 °F 93% 29.83 in 6.2 mi West 5.8 mph - N/A   Mostly Cloudy
7:00 AM 37 °F - 35 °F 89% 29.90 in 37 mi SW 6.9 mph - -   Partly Cloudy
7:20 AM 37.4 °F 32.8 °F 35.6 °F 93% 29.86 in 6.2 mi WSW 5.8 mph - N/A   Mostly Cloudy
7:50 AM 35.6 °F - 33.8 °F 93% 29.86 in 6.2 mi WSW 2.3 mph - N/A   Partly Cloudy
8:00 AM 35 °F - 33 °F 92% 29.92 in - NNW 2.3 mph - -  
8:20 AM 33.8 °F - 33.8 °F 100% 29.86 in 6.2 mi Variable 2.3 mph - N/A   Partly Cloudy
8:50 AM 33.8 °F 28.6 °F 33.8 °F 100% 29.89 in 6.2 mi West 5.8 mph - N/A   Partly Cloudy
9:00 AM 34 °F - 32 °F 89% 29.96 in - WSW 3.5 mph - -  
9:20 AM 33.8 °F 30.8 °F 33.8 °F 100% 29.92 in 6.2 mi Variable 3.5 mph - N/A   Partly Cloudy
9:50 AM 37.4 °F - 33.8 °F 87% 29.92 in 6.2 mi Variable 2.3 mph - N/A   Partly Cloudy
10:00 AM 37 °F - 33 °F 82% 29.97 in 37 mi SW 5.8 mph - -   Scattered Clouds
10:20 AM 39.2 °F 35.9 °F 35.6 °F 87% 29.92 in 6.2 mi SSW 4.6 mph - N/A   Partly Cloudy
10:50 AM 41.0 °F 38.0 °F 35.6 °F 81% 29.92 in 6.2 mi WNW 4.6 mph - N/A   Scattered Clouds
11:00 AM 39 °F - 34 °F 74% 29.98 in - West 4.6 mph - -  
11:20 AM 41.0 °F - 35.6 °F 81% 29.92 in 6.2 mi Variable 1.2 mph - N/A   Scattered Clouds
11:50 AM 42.8 °F 41.1 °F 35.6 °F 76% 29.92 in 6.2 mi Variable 3.5 mph - N/A   Scattered Clouds
12:00 PM 42 °F - 34 °F 64% 29.96 in - West 5.8 mph - -  
12:20 PM 42.8 °F 41.1 °F 35.6 °F 76% 29.92 in 6.2 mi SW 3.5 mph - N/A   Partly Cloudy
12:50 PM 44.6 °F 40.2 °F 35.6 °F 71% 29.92 in 6.2 mi SW 8.1 mph - N/A   Partly Cloudy
1:00 PM 44 °F - 33 °F 54% 29.95 in 44 mi WSW 6.9 mph - -   Scattered Clouds
1:20 PM 44.6 °F 41.4 °F 35.6 °F 71% 29.92 in 6.2 mi SW 5.8 mph - N/A   Partly Cloudy
1:50 PM 44.6 °F 40.7 °F 35.6 °F 71% 29.92 in 6.2 mi SSW 6.9 mph - N/A   Partly Cloudy
2:00 PM 45 °F - 34 °F 54% 29.96 in - SSW 5.8 mph - -  
2:20 PM 46.4 °F 43.5 °F 33.8 °F 62% 29.92 in 6.2 mi SSW 5.8 mph - N/A   Partly Cloudy
2:50 PM 46.4 °F 42.9 °F 33.8 °F 62% 29.92 in 6.2 mi South 6.9 mph - N/A   Partly Cloudy
3:00 PM 45 °F - 33 °F 50% 29.96 in - SW 5.8 mph - -  
3:20 PM 46.4 °F 44.3 °F 33.8 °F 62% 29.92 in 6.2 mi WSW 4.6 mph - N/A   Partly Cloudy
3:50 PM 46.4 °F 44.3 °F 33.8 °F 62% 29.92 in 6.2 mi WSW 4.6 mph - N/A   Partly Cloudy
4:00 PM 45 °F - 32 °F 49% 29.97 in 44 mi West 4.6 mph - -   Scattered Clouds
4:20 PM 44.6 °F 43.1 °F 33.8 °F 66% 29.95 in 6.2 mi WSW 3.5 mph - N/A   Partly Cloudy
4:50 PM 42.8 °F 39.3 °F 35.6 °F 76% 29.95 in 6.2 mi SW 5.8 mph - N/A   Partly Cloudy
5:00 PM 41 °F - 34 °F 67% 30.01 in - WSW 4.6 mph - -  
5:20 PM 41.0 °F 38.0 °F 35.6 °F 81% 29.98 in - SW 4.6 mph - N/A   Clear
5:50 PM 41.0 °F 38.0 °F 35.6 °F 81% 29.98 in - WSW 4.6 mph - N/A   Clear
6:00 PM 40 °F - 34 °F 72% 30.04 in - West 2.3 mph - -  
6:20 PM 39.2 °F - 35.6 °F 87% 30.01 in - Variable 1.2 mph - N/A   Clear
6:50 PM 39.2 °F - 35.6 °F 87% 30.01 in - Calm Calm - N/A   Clear
7:00 PM 37 °F - 35 °F 88% 30.06 in 31 mi North 1.2 mph - -   Mostly Cloudy
7:20 PM 39.2 °F - 35.6 °F 87% 30.01 in - Calm Calm - N/A   Clear
7:50 PM 37.4 °F - 33.8 °F 87% 30.01 in - NNE 2.3 mph - N/A   Clear
8:00 PM 38 °F - 34 °F 80% 30.06 in - NNE 3.5 mph - -  
8:20 PM 37.4 °F - 35.6 °F 93% 30.01 in - Calm Calm - N/A   Clear
8:50 PM 35.6 °F - 33.8 °F 93% 30.01 in - Variable 1.2 mph - N/A   Clear
9:00 PM 36 °F - 33 °F 84% 30.07 in - WSW 2.3 mph - -  
9:20 PM 35.6 °F - 33.8 °F 93% 30.01 in - West 1.2 mph - N/A   Clear
9:50 PM 35.6 °F - 33.8 °F 93% 30.01 in - WNW 2.3 mph - N/A   Clear
10:00 PM 36 °F - 32 °F 81% 30.08 in 31 mi SW 2.3 mph - -   Partly Cloudy
10:20 PM 35.6 °F 32.8 °F 33.8 °F 93% 30.01 in - Variable 3.5 mph - N/A   Clear
10:50 PM 33.8 °F - 32.0 °F 93% 30.01 in - Calm Calm - N/A   Clear
11:00 PM 33 °F - 32 °F 92% 30.08 in - North 1.2 mph - -  
11:20 PM 33.8 °F - 32.0 °F 93% 30.01 in - Calm Calm - N/A   Clear
11:50 PM 32.0 °F - 32.0 °F 100% 30.01 in - Calm Calm - N/A   Clear